| time (UTC) | temp F | wind direction | speed MPH | gust MPH | rain 1hr in | rain 24hr in | rain mn in | humidity % | barometer mb |
| 20260510234513 | 58 | 258 | 1.0 | 2.0 | 0.00 | 0.06 | 0.00 | 76 | 1014.3 |
| 20260510234019 | 59 | 258 | 1.0 | 2.0 | 0.00 | 0.06 | 0.00 | 76 | 1014.4 |
| 20260510233019 | 59 | 258 | 1.0 | 2.0 | 0.00 | 0.06 | 0.00 | 77 | 1014.5 |
| 20260510232513 | 59 | 258 | 0.0 | 1.0 | 0.00 | 0.06 | 0.00 | 76 | 1014.5 |
| 20260510230012 | 59 | 278 | 1.0 | 2.0 | 0.00 | 0.06 | 0.00 | 76 | 1014.7 |
| 20260510225513 | 59 | 359 | 1.0 | 2.0 | 0.00 | 0.06 | 0.00 | 76 | 1014.7 |
| 20260510225020 | 59 | 308 | 0.0 | 1.0 | 0.00 | 0.06 | 0.00 | 76 | 1014.7 |
| 20260510224512 | 59 | 308 | 0.0 | 1.0 | 0.00 | 0.06 | 0.00 | 77 | 1014.6 |
| 20260510224019 | 59 | 359 | 0.0 | 2.0 | 0.00 | 0.06 | 0.00 | 76 | 1014.6 |
| 20260510223020 | 60 | 359 | 0.0 | 1.0 | 0.00 | 0.06 | 0.00 | 77 | 1014.6 |
| 20260510222020 | 60 | 309 | 1.0 | 2.0 | 0.00 | 0.06 | 0.00 | 75 | 1014.6 |
| 20260510221514 | 61 | 313 | 0.0 | 2.0 | 0.00 | 0.06 | 0.00 | 75 | 1014.6 |
| 20260510221019 | 61 | 60 | 1.0 | 2.0 | 0.00 | 0.06 | 0.00 | 75 | 1014.7 |
| 20260510220512 | 61 | 61 | 1.0 | 2.0 | 0.00 | 0.06 | 0.00 | 75 | 1014.7 |
| 20260510214019 | 61 | 261 | 0.0 | 1.0 | 0.00 | 0.06 | 0.06 | 74 | 1014.7 |
| 20260510213021 | 61 | 247 | 0.0 | 1.0 | 0.00 | 0.06 | 0.06 | 75 | 1014.5 |
| 20260510212019 | 61 | 247 | 0.0 | 1.0 | 0.00 | 0.06 | 0.06 | 75 | 1014.6 |
| 20260510211512 | 61 | 247 | 0.0 | 1.0 | 0.00 | 0.06 | 0.06 | 75 | 1014.5 |
| 20260510211019 | 61 | 247 | 1.0 | 1.0 | 0.00 | 0.06 | 0.06 | 75 | 1014.6 |
| 20260510210513 | 61 | 244 | 0.0 | 1.0 | 0.00 | 0.06 | 0.06 | 75 | 1014.7 |
| 20260510210012 | 61 | 244 | 1.0 | 2.0 | 0.00 | 0.06 | 0.06 | 74 | 1014.8 |
| 20260510205512 | 62 | 177 | 1.0 | 2.0 | 0.00 | 0.06 | 0.06 | 74 | 1014.8 |
| 20260510204513 | 62 | 302 | 0.0 | 1.0 | 0.00 | 0.06 | 0.06 | 72 | 1014.9 |
| 20260510204019 | 62 | 302 | 0.0 | 1.0 | 0.00 | 0.06 | 0.06 | 72 | 1014.8 |
| 20260510203512 | 62 | 303 | 0.0 | 1.0 | 0.00 | 0.06 | 0.06 | 72 | 1014.8 |
| 20260510202512 | 62 | 302 | 0.0 | 1.0 | 0.00 | 0.06 | 0.06 | 73 | 1014.7 |
| 20260510202020 | 62 | 302 | 1.0 | 2.0 | 0.00 | 0.06 | 0.06 | 73 | 1014.8 |
| 20260510200012 | 63 | 189 | 0.0 | 3.0 | 0.00 | 0.06 | 0.06 | 72 | 1014.7 |
| 20260510195019 | 63 | 205 | 1.0 | 3.0 | 0.00 | 0.06 | 0.06 | 72 | 1014.7 |
| 20260510194019 | 64 | 179 | 1.0 | 2.0 | 0.00 | 0.06 | 0.06 | 71 | 1014.7 |
| 20260510193513 | 64 | 181 | 0.0 | 2.0 | 0.00 | 0.06 | 0.06 | 70 | 1014.5 |
| 20260510192512 | 65 | 292 | 0.0 | 2.0 | 0.00 | 0.06 | 0.06 | 70 | 1014.6 |
| 20260510191019 | 65 | 288 | 2.0 | 3.0 | 0.00 | 0.06 | 0.06 | 69 | 1014.5 |
| 20260510190514 | 65 | 288 | 1.0 | 3.0 | 0.00 | 0.06 | 0.06 | 68 | 1014.5 |
| 20260510185019 | 66 | 298 | 1.0 | 3.0 | 0.00 | 0.06 | 0.06 | 67 | 1014.5 |
| 20260510182514 | 66 | 330 | 1.0 | 3.0 | 0.00 | 0.06 | 0.06 | 66 | 1014.2 |
| 20260510181513 | 66 | 243 | 1.0 | 3.0 | 0.00 | 0.06 | 0.06 | 64 | 1014.2 |
| 20260510181020 | 66 | 291 | 2.0 | 6.0 | 0.00 | 0.06 | 0.06 | 64 | 1014.2 |
| 20260510180513 | 67 | 279 | 2.0 | 3.0 | 0.00 | 0.06 | 0.06 | 64 | 1014.3 |
| 20260510180014 | 67 | 288 | 2.0 | 3.0 | 0.00 | 0.06 | 0.06 | 64 | 1014.2 |
| 20260510173512 | 67 | 94 | 1.0 | 3.0 | 0.00 | 0.06 | 0.06 | 62 | 1014.0 |
| 20260510173020 | 68 | 62 | 1.0 | 3.0 | 0.00 | 0.06 | 0.06 | 62 | 1014.1 |
| 20260510165020 | 70 | 83 | 2.0 | 6.0 | 0.00 | 0.06 | 0.06 | 58 | 1013.7 |
| 20260510164019 | 70 | 54 | 4.0 | 8.0 | 0.00 | 0.06 | 0.06 | 58 | 1013.6 |
| 20260510163020 | 70 | 85 | 3.0 | 7.0 | 0.00 | 0.06 | 0.06 | 57 | 1013.6 |
| 20260510162020 | 71 | 102 | 2.0 | 7.0 | 0.00 | 0.06 | 0.06 | 56 | 1013.6 |
| 20260510161514 | 71 | 115 | 5.0 | 10.0 | 0.00 | 0.06 | 0.06 | 56 | 1013.7 |
| 20260510161020 | 71 | 125 | 5.0 | 7.0 | 0.00 | 0.06 | 0.06 | 55 | 1013.8 |
| 20260510160512 | 71 | 101 | 5.0 | 7.0 | 0.00 | 0.06 | 0.06 | 56 | 1013.7 |
| 20260510160012 | 71 | 114 | 5.0 | 9.0 | 0.00 | 0.06 | 0.06 | 55 | 1013.6 |
| 20260510154021 | 72 | 108 | 5.0 | 9.0 | 0.00 | 0.06 | 0.06 | 53 | 1013.8 |
| 20260510153020 | 73 | 70 | 5.0 | 9.0 | 0.00 | 0.06 | 0.06 | 53 | 1013.9 |
| 20260510152019 | 73 | 86 | 6.0 | 12.0 | 0.00 | 0.06 | 0.06 | 52 | 1014.0 |
| 20260510151512 | 73 | 107 | 5.0 | 10.0 | 0.00 | 0.06 | 0.06 | 51 | 1014.0 |
| 20260510151020 | 73 | 118 | 4.0 | 10.0 | 0.00 | 0.06 | 0.06 | 52 | 1013.9 |
| 20260510144019 | 74 | 25 | 5.0 | 10.0 | 0.00 | 0.06 | 0.06 | 51 | 1014.1 |
| 20260510143512 | 73 | 61 | 4.0 | 9.0 | 0.00 | 0.06 | 0.06 | 50 | 1014.0 |
| 20260510143020 | 73 | 79 | 3.0 | 12.0 | 0.00 | 0.06 | 0.06 | 50 | 1013.9 |
| 20260510133019 | 73 | 66 | 7.0 | 10.0 | 0.00 | 0.06 | 0.06 | 50 | 1014.7 |
| 20260510132512 | 73 | 54 | 6.0 | 10.0 | 0.00 | 0.06 | 0.06 | 49 | 1014.7 |
| 20260510132019 | 74 | 75 | 5.0 | 8.0 | 0.00 | 0.06 | 0.06 | 49 | 1014.8 |
| 20260510131513 | 73 | 59 | 4.0 | 12.0 | 0.00 | 0.06 | 0.06 | 50 | 1014.8 |
| 20260510130012 | 74 | 87 | 6.0 | 12.0 | 0.00 | 0.06 | 0.06 | 50 | 1014.7 |
| 20260510125512 | 74 | 87 | 6.0 | 10.0 | 0.00 | 0.06 | 0.06 | 49 | 1014.6 |
| 20260510124021 | 73 | 120 | 7.0 | 13.0 | 0.00 | 0.06 | 0.06 | 51 | 1014.6 |
| 20260510123512 | 73 | 79 | 6.0 | 13.0 | 0.00 | 0.06 | 0.06 | 51 | 1014.7 |
| 20260510121512 | 73 | 60 | 4.0 | 10.0 | 0.00 | 0.06 | 0.06 | 53 | 1014.9 |
| 20260510121019 | 72 | 17 | 7.0 | 12.0 | 0.00 | 0.06 | 0.06 | 54 | 1014.9 |
| 20260510120513 | 73 | 131 | 6.0 | 12.0 | 0.00 | 0.06 | 0.06 | 54 | 1014.9 |
| 20260510120012 | 72 | 75 | 6.0 | 12.0 | 0.00 | 0.06 | 0.06 | 56 | 1015.1 |
| 20260510114512 | 72 | 104 | 5.0 | 12.0 | 0.00 | 0.06 | 0.06 | 58 | 1015.2 |
| 20260510114019 | 71 | 95 | 7.0 | 14.0 | 0.00 | 0.06 | 0.06 | 58 | 1015.3 |
| 20260510113512 | 71 | 99 | 6.0 | 12.0 | 0.00 | 0.06 | 0.06 | 59 | 1015.3 |
| 20260510113020 | 71 | 101 | 5.0 | 12.0 | 0.00 | 0.06 | 0.06 | 58 | 1015.3 |
| 20260510112512 | 71 | 90 | 5.0 | 12.0 | 0.00 | 0.06 | 0.06 | 58 | 1015.4 |
| 20260510110513 | 70 | 325 | 5.0 | 10.0 | 0.00 | 0.06 | 0.06 | 61 | 1015.7 |
| 20260510105020 | 70 | 80 | 6.0 | 12.0 | 0.00 | 0.06 | 0.06 | 61 | 1015.8 |
| 20260510104019 | 70 | 53 | 6.0 | 12.0 | 0.00 | 0.06 | 0.06 | 62 | 1015.9 |
| 20260510103512 | 69 | 64 | 5.0 | 13.0 | 0.00 | 0.06 | 0.06 | 63 | 1015.8 |
| 20260510103019 | 69 | 75 | 7.0 | 12.0 | 0.00 | 0.06 | 0.06 | 65 | 1015.8 |
| 20260510102527 | 69 | 112 | 6.0 | 12.0 | 0.00 | 0.06 | 0.06 | 65 | 1015.8 |
| 20260510101512 | 68 | 69 | 7.0 | 13.0 | 0.00 | 0.06 | 0.06 | 64 | 1016.0 |
| 20260510100512 | 68 | 84 | 8.0 | 14.0 | 0.00 | 0.06 | 0.06 | 65 | 1016.1 |
| 20260510100012 | 68 | 52 | 6.0 | 12.0 | 0.00 | 0.06 | 0.06 | 66 | 1016.1 |
| 20260510095019 | 67 | 39 | 9.0 | 14.0 | 0.00 | 0.06 | 0.06 | 66 | 1016.1 |
| 20260510094019 | 67 | 80 | 5.0 | 9.0 | 0.00 | 0.06 | 0.06 | 67 | 1016.1 |
| 20260510093020 | 66 | 29 | 7.0 | 14.0 | 0.00 | 0.06 | 0.06 | 69 | 1016.1 |
| 20260510092512 | 66 | 54 | 7.0 | 14.0 | 0.00 | 0.06 | 0.06 | 69 | 1016.1 |
| 20260510090512 | 65 | 110 | 9.0 | 17.0 | 0.00 | 0.06 | 0.06 | 71 | 1015.8 |
| 20260510084512 | 64 | 101 | 9.0 | 17.0 | 0.00 | 0.06 | 0.06 | 71 | 1015.8 |
| 20260510084019 | 64 | 109 | 5.0 | 12.0 | 0.00 | 0.06 | 0.06 | 74 | 1015.8 |
| 20260510083019 | 63 | 107 | 6.0 | 13.0 | 0.00 | 0.06 | 0.06 | 76 | 1015.7 |
| 20260510082021 | 63 | 50 | 5.0 | 12.0 | 0.00 | 0.06 | 0.06 | 77 | 1015.6 |
| 20260510081511 | 62 | 74 | 9.0 | 14.0 | 0.00 | 0.06 | 0.06 | 77 | 1015.6 |
| 20260510081020 | 63 | 102 | 9.0 | 13.0 | 0.00 | 0.06 | 0.06 | 76 | 1015.5 |
| 20260510080512 | 62 | 128 | 7.0 | 14.0 | 0.00 | 0.06 | 0.06 | 77 | 1015.6 |
| 20260510080014 | 62 | 57 | 8.0 | 13.0 | 0.00 | 0.06 | 0.06 | 77 | 1015.6 |
| 20260510075019 | 61 | 79 | 8.0 | 15.0 | 0.00 | 0.06 | 0.06 | 80 | 1015.6 |
| 20260510074019 | 61 | 109 | 6.0 | 12.0 | 0.00 | 0.06 | 0.06 | 80 | 1015.7 |
| 20260510073512 | 60 | 65 | 7.0 | 12.0 | 0.00 | 0.06 | 0.06 | 81 | 1015.7 |
| 20260510073019 | 60 | 125 | 6.0 | 12.0 | 0.00 | 0.06 | 0.06 | 81 | 1015.7 |
| 20260510070512 | 59 | 99 | 9.0 | 14.0 | 0.00 | 0.06 | 0.06 | 80 | 1015.6 |
| 20260510065511 | 59 | 88 | 7.0 | 14.0 | 0.00 | 0.06 | 0.06 | 79 | 1015.6 |
| 20260510065019 | 59 | 98 | 7.0 | 13.0 | 0.00 | 0.06 | 0.06 | 79 | 1015.6 |
| 20260510063512 | 59 | 35 | 6.0 | 12.0 | 0.00 | 0.06 | 0.06 | 79 | 1015.6 |
| 20260510062511 | 59 | 86 | 6.0 | 12.0 | 0.00 | 0.06 | 0.06 | 78 | 1015.5 |
| 20260510062020 | 59 | 75 | 6.0 | 9.0 | 0.00 | 0.06 | 0.06 | 78 | 1015.5 |
| 20260510061511 | 59 | 102 | 6.0 | 13.0 | 0.00 | 0.06 | 0.06 | 78 | 1015.5 |
| 20260510054512 | 57 | 79 | 6.0 | 12.0 | 0.00 | 0.06 | 0.06 | 84 | 1015.1 |
| 20260510053512 | 57 | 70 | 5.0 | 12.0 | 0.00 | 0.06 | 0.06 | 85 | 1015.0 |
| 20260510045512 | 57 | 102 | 9.0 | 20.0 | 0.00 | 0.06 | 0.06 | 88 | 1014.6 |
| 20260510044511 | 56 | 49 | 6.0 | 12.0 | 0.00 | 0.06 | 0.06 | 89 | 1014.8 |
| 20260510043512 | 56 | 75 | 6.0 | 8.0 | 0.00 | 0.06 | 0.06 | 88 | 1015.0 |
| 20260510043021 | 56 | 107 | 3.0 | 8.0 | 0.00 | 0.06 | 0.06 | 88 | 1015.1 |
| 20260510040011 | 57 | 102 | 5.0 | 12.0 | 0.00 | 0.06 | 0.06 | 87 | 1015.0 |
| 20260510035019 | 57 | 87 | 8.0 | 15.0 | 0.00 | 0.06 | 0.06 | 86 | 1014.8 |
| 20260510034511 | 57 | 73 | 5.0 | 10.0 | 0.00 | 0.06 | 0.06 | 86 | 1015.0 |
| 20260510034020 | 57 | 102 | 6.0 | 12.0 | 0.00 | 0.06 | 0.06 | 85 | 1014.7 |
| 20260510032511 | 57 | 112 | 7.0 | 12.0 | 0.01 | 0.06 | 0.06 | 86 | 1014.7 |
| 20260510031513 | 57 | 359 | 7.0 | 13.0 | 0.02 | 0.06 | 0.06 | 89 | 1014.4 |
| 20260510031018 | 57 | 102 | 6.0 | 12.0 | 0.02 | 0.06 | 0.06 | 90 | 1014.3 |
| 20260510030511 | 57 | 95 | 7.0 | 14.0 | 0.02 | 0.06 | 0.06 | 90 | 1014.4 |
| 20260510024017 | 56 | 96 | 6.0 | 8.0 | 0.05 | 0.06 | 0.06 | 91 | 1015.6 |
| 20260510023019 | 56 | 118 | 4.0 | 7.0 | 0.05 | 0.06 | 0.06 | 90 | 1015.9 |
| 20260510022511 | 56 | 137 | 4.0 | 9.0 | 0.05 | 0.05 | 0.05 | 90 | 1016.4 |
| 20260510021511 | 57 | 115 | 3.0 | 6.0 | 0.04 | 0.04 | 0.04 | 88 | 1017.1 |
| 20260510020511 | 58 | 359 | 5.0 | 10.0 | 0.04 | 0.04 | 0.04 | 87 | 1016.6 |
| 20260510015511 | 58 | 112 | 3.0 | 12.0 | 0.02 | 0.02 | 0.02 | 86 | 1016.6 |
| 20260510015018 | 58 | 55 | 6.0 | 13.0 | 0.01 | 0.01 | 0.01 | 86 | 1016.7 |
| 20260510013516 | 58 | 87 | 6.0 | 12.0 | 0.01 | 0.01 | 0.01 | 85 | 1017.0 |
| 20260510013018 | 58 | 103 | 10.0 | 17.0 | 0.01 | 0.01 | 0.01 | 85 | 1017.0 |
| 20260510011511 | 57 | 42 | 5.0 | 9.0 | 0.00 | 0.00 | 0.00 | 86 | 1017.3 |
| 20260510010510 | 57 | 31 | 7.0 | 16.0 | 0.00 | 0.00 | 0.00 | 87 | 1017.5 |
| 20260510010011 | 57 | 73 | 7.0 | 13.0 | 0.00 | 0.00 | 0.00 | 89 | 1017.4 |
| 20260510005511 | 56 | 354 | 5.0 | 14.0 | 0.00 | 0.00 | 0.00 | 90 | 1017.6 |
| 20260510005017 | 56 | 45 | 8.0 | 16.0 | 0.00 | 0.00 | 0.00 | 91 | 1017.6 |
| 20260510004018 | 56 | 359 | 8.0 | 15.0 | 0.00 | 0.00 | 0.00 | 92 | 1017.6 |
| 20260510003511 | 56 | 25 | 7.0 | 15.0 | 0.00 | 0.00 | 0.00 | 92 | 1016.2 |
| 20260510003018 | 56 | 28 | 8.0 | 14.0 | 0.00 | 0.00 | 0.00 | 92 | 1014.9 |
| 20260510001511 | 56 | 84 | 8.0 | 18.0 | 0.00 | 0.00 | 0.00 | 92 | 1015.0 |
| 20260510001018 | 56 | 77 | 9.0 | 15.0 | 0.00 | 0.00 | 0.00 | 92 | 1014.8 |
| 20260510000015 | 57 | 58 | 6.0 | 12.0 | 0.00 | 0.00 | 0.00 | 92 | 1015.0 |
| 20260509235516 | 57 | 51 | 5.0 | 13.0 | 0.00 | 0.00 | 0.00 | 92 | 1015.0 |